#timestamp,LO_Frequency,Hit,StdDev 
1633809615.3,286047002.4,N
1633809635.1,286047001.3,N
1633809655.9,286047002.2,N
1633809675.7,286047001.3,N
1633809695.5,286047004.3,N
1633809715.4,286047002.2,N
1633809735.2,286047002.2,N
1633809755.1,286047000.3,N
1633809756.0,286047000.3,N
1633809775.8,286047002.6,N
1633809795.6,286047002.6,N
1633809815.5,286047004.0,Y
1633809835.3,286047002.7,P
1633809855.1,286046999.8,N
1633809875.9,286046998.1,N
1633809895.7,286046998.8,N
1633809915.6,286046998.3,N
1633809935.4,286047000.4,N
1633809955.2,286047002.5,N
1633809975.1,286047002.2,N
1633809976.0,286047002.2,N
1633809995.8,286047000.8,N
1633810015.7,286047002.3,N
1633810035.5,286047003.9,N
1633810055.3,286047003.2,N
1633810075.2,286047005.6,Y
1633810095.0,286047003.6,P
1633810095.9,286047003.6,P
1633810115.7,286047005.1,P
1633810135.6,286047007.1,Y
1633810155.4,286047003.7,P
1633810175.3,286047005.3,P
1633810195.1,286047004.4,P
1633810215.8,286047001.5,N
1633810235.7,286047005.6,Y
1633810255.5,286047000.7,P
1633810275.4,286046998.6,N
1633810295.2,286047000.9,N
1633810315.0,286046999.3,N
1633810315.9,286046999.3,N
1633810335.8,286046998.4,N
1633810355.6,286046998.3,N
1633810375.4,286046998.5,N
1633810395.3,286047000.7,N
1633810415.1,286047002.2,N
1633810435.9,286047003.9,N
1633810455.7,286046999.8,N
1633810475.5,286047001.6,N
1633810495.4,286046999.9,N
1633810515.2,286047000.3,N
1633810535.0,286046998.6,N
1633810535.9,286046998.6,N
1633810555.8,286047000.5,N
1633810575.6,286046998.8,N
1633810595.5,286046999.5,N
1633810615.3,286046997.4,N
1633810635.1,286046996.9,N
1633810655.9,286046999.0,N
1633810675.7,286046999.6,N
1633810695.6,286046997.3,N
1633810715.4,286047000.7,N
1633810735.2,286046998.6,N
1633810755.1,286046998.3,N
1633810756.0,286046998.3,N
1633810775.8,286046998.3,N
1633810795.6,286046998.8,N
1633810815.5,286047000.7,N
1633810835.3,286047006.5,Y
1633810855.2,286047011.1,P
1633810875.9,286047012.5,N
1633810895.7,286047018.0,P
1633810915.6,286047021.7,Y
1633810935.4,286047011.5,P
1633810955.2,286047009.3,P
1633810975.1,286047009.9,P
1633810976.0,286047009.9,Y
1633810995.8,286046997.6,P
1633811015.7,286046997.5,N
1633811035.5,286046992.3,N
1633811055.3,286046989.2,N
1633811075.2,286046987.5,N
1633811095.0,286046990.3,N
1633811095.9,286046990.3,N
1633811115.8,286046987.4,N
1633811135.6,286046988.0,N
1633811155.4,286046986.6,N
1633811175.3,286046985.4,N
1633811195.1,286046985.5,N
1633811215.8,286046985.6,N
1633811235.7,286046985.6,N
1633811255.5,286046986.6,N
1633811275.3,286046983.9,N
1633811295.2,286046982.1,N
1633811315.0,286046982.1,N
1633811315.9,286046982.1,N
1633811335.8,286046984.1,N
1633811355.6,286046986.4,N
1633811375.4,286046988.0,N
1633811395.3,286046987.9,N
1633811415.1,286046988.2,N
1633811435.8,286046988.1,N
1633811455.7,286046985.7,N
1633811475.5,286046985.4,N
1633811495.4,286046987.1,N
1633811515.2,286046987.4,N
1633811535.0,286046988.1,N
1633811535.9,286046988.1,Y
1633811555.8,286046996.9,P
1633811575.6,286046994.9,N
1633811595.5,286046996.9,N
1633811615.3,286046999.5,N
1633811635.1,286046998.5,N
1633811655.9,286047001.2,N
1633811675.7,286046998.1,N
1633811695.5,286047000.4,N
1633811715.4,286046998.5,N
1633811735.2,286046998.9,N
1633811755.0,286046998.4,N
1633811756.0,286046998.4,N
1633811775.8,286046998.2,N
1633811795.6,286047000.8,N
1633811815.5,286047000.8,N
1633811835.3,286046998.2,N
1633811855.1,286046998.8,N
1633811875.9,286046998.5,N
1633811895.7,286047002.8,N
1633811915.5,286047001.2,N
1633811935.4,286046998.1,N
1633811955.2,286047001.1,N
1633811975.1,286047002.8,N
1633811976.0,286047002.8,N
1633811995.8,286047001.6,N
1633812015.6,286047001.5,N
1633812035.5,286047000.8,N
1633812055.3,286046998.2,N
1633812075.1,286047000.1,N
1633812095.9,286047000.6,N
1633812115.7,286046999.7,N
1633812135.6,286047002.0,N
1633812155.4,286047004.0,N
1633812205.3,286047004.4,E
1633812215.2,286047000.7,N
1633812235.0,286046996.9,P
1633812235.9,286046996.9,N
1633812255.8,286046998.1,N
1633812275.6,286046996.9,N
1633812295.4,286046997.2,N
1633812315.3,286046998.8,N
1633812335.1,286046999.1,N
1633812355.8,286046996.7,N
1633812375.7,286046998.9,N
1633812395.5,286046999.1,N
1633812415.4,286046998.3,N
1633812435.2,286047002.2,N
1633812455.0,286047002.5,N
1633812455.9,286047002.5,N
1633812475.8,286047002.3,N
1633812495.6,286047000.1,N
1633812515.4,286046999.3,N
1633812535.3,286047001.1,N
1633812555.1,286046998.5,N
1633812575.9,286047000.0,N
1633812595.7,286047002.8,N
1633812615.5,286047002.0,N
1633812635.4,286047002.7,N
1633812655.2,286046998.6,N
1633812675.0,286046999.0,N
1633812676.0,286046999.0,N
1633812695.8,286046998.1,N
1633812715.6,286046998.3,N
1633812735.5,286046998.8,N
1633812755.3,286047000.7,N
1633812775.1,286046998.2,N
1633812795.9,286046996.8,N
1633812815.7,286046998.7,N
1633812835.6,286047001.0,N
1633812855.4,286047001.1,N
1633812875.2,286046999.7,N
1633812895.1,286047002.8,N
1633812896.0,286047002.8,N
1633812915.8,286047002.7,N
1633812935.6,286047002.8,N
1633812955.5,286047002.5,N
1633812975.3,286047004.3,N
1633812995.2,286047003.6,N
1633813015.9,286047001.4,N
1633813035.7,286047002.8,N
1633813055.6,286046999.8,N
1633813075.4,286047002.2,N
1633813095.2,286047002.2,N
1633813115.1,286047002.5,N
1633813116.0,286047002.5,N
1633813135.8,286046999.9,N
1633813155.7,286047000.5,N
1633813175.5,286047002.4,N
1633813195.3,286047001.9,N
